New Orleans Lakefront, LA

6:21 AM CDT on April 27, 2017 (GMT -0500)
Lakefront

Weather History for KNEW - March, 2013

Change the Weather History Date:

Saturday, March 23, 2013

  Actual Average Record
Temperature  
Mean Temperature 71 °F 64 °F  
Max Temperature 76 °F 73 °F 84 °F (1995)
Min Temperature 65 °F 55 °F 29 °F (1968)
Degree Days  
Heating Degree Days 0 3  
Month to date heating degree days 146 113  
Since 1 July heating degree days 1035 1222  
Cooling Degree Days 6 2  
Month to date cooling degree days 30 41  
Year to date cooling degree days 62 78  
Growing Degree Days 23 (Base 50)    
Moisture  
Dew Point 67 °F    
Average Humidity 90    
Maximum Humidity 100    
Minimum Humidity 79    
Precipitation  
Precipitation T in 0.14 in 2.39 in (1958)
Month to date precipitation 0.74 3.33  
Year to date precipitation 14.54 13.78  
Snow  
Snow 0.00 in - - ()
Month to date snowfall 0.0  
Since 1 July snowfall 0.0  
Snow Depth 0.00 in    
Sea Level Pressure  
Sea Level Pressure 29.71 in    
Wind  
Wind Speed 8 mph (SE)    
Max Wind Speed 15 mph    
Max Gust Speed 18 mph    
Visibility 4 miles    
Events Fog    
T = Trace of Precipitation, MM = Missing Value Source: NWS Daily Summary

Daily Weather History Graph

Daily Weather History Graph

Search for Another Location

Airport or City:

Trip Planner

Search our weather history database for the weather conditions in past years. The results will help you decide how hot, cold, wet, or windy it might be!

Date:

Astronomy

Mar. 23, 2013 Rise Set
Actual Time 6:59 AM CDT 7:13 PM CDT
Civil Twilight 6:36 AM CDT 7:37 PM CDT
Nautical Twilight 6:08 AM CDT 8:05 PM CDT
Astronomical Twilight 5:40 AM CDT 8:33 PM CDT
Moon 3:53 PM CDT (3/23) 4:21 AM CDT (3/23)
Length of Visible Light 13h 01m
Length of Day
12h 13m
Waxing Gibbous, 85% of the Moon is Illuminated
Mar 23
Waxing Gibbous
Mar 27
Full
Apr 2
Last Quarter
Apr 10
New
Apr 18
First Quarter

Hourly Weather History & Observations

Time (CDT) Temp. Heat Index Dew Point Humidity Pressure Visibility Wind Dir Wind Speed Gust Speed Precip Events Conditions
12:27 AM 69.8 °F - 62.6 °F 78% 29.84 in 4.0 mi ENE 8.1 mph - N/A   Haze
12:53 AM 68.0 °F - 63.0 °F 84% 29.79 in 4.0 mi ENE 9.2 mph - N/A   Haze
1:05 AM 68.0 °F - 62.6 °F 83% 29.82 in 1.8 mi ENE 6.9 mph - N/A   Haze
1:45 AM 68.0 °F - 62.6 °F 83% 29.83 in 0.5 mi East 4.6 mph - N/A   Haze
1:53 AM 68.0 °F - 62.6 °F 83% 29.83 in 0.5 mi East 3.5 mph - N/A   Haze
2:05 AM 68.0 °F - 64.4 °F 88% 29.83 in 0.2 mi Calm Calm - N/A Fog Fog
2:53 AM 66.9 °F - 63.0 °F 87% 29.79 in 0.2 mi NE 6.9 mph - N/A Fog Fog
3:53 AM 66.9 °F - 62.1 °F 84% 29.77 in 0.2 mi East 10.4 mph - N/A   Haze
4:53 AM 66.9 °F - 63.0 °F 87% 29.77 in 0.2 mi ENE 8.1 mph - N/A Fog Fog
5:14 AM 66.2 °F - 62.6 °F 88% 29.78 in 0.5 mi East 10.4 mph - N/A   Haze
5:53 AM 66.9 °F - 62.1 °F 84% 29.76 in 0.5 mi East 11.5 mph - N/A   Haze
6:53 AM 66.9 °F - 62.1 °F 84% 29.76 in 0.8 mi East 10.4 mph - N/A   Haze
7:30 AM 66.2 °F - 62.6 °F 88% 29.78 in 0.2 mi ESE 11.5 mph - N/A Fog Fog
7:53 AM 66.9 °F - 63.0 °F 87% 29.76 in 0.2 mi East 13.8 mph - N/A Fog Fog
8:53 AM 68.0 °F - 63.0 °F 84% 29.77 in 0.2 mi ESE 11.5 mph - N/A   Haze
9:19 AM 68.0 °F - 64.4 °F 88% 29.79 in 0.5 mi ESE 9.2 mph - N/A Fog Fog
9:53 AM 69.1 °F - 64.9 °F 87% 29.78 in 0.5 mi SE 8.1 mph - N/A Fog Fog
10:04 AM 69.8 °F - 64.4 °F 83% 29.81 in 1.5 mi SE 6.9 mph - N/A   Haze
10:16 AM 69.8 °F - 66.2 °F 88% 29.81 in 3.0 mi SE 6.9 mph - N/A   Overcast
10:53 AM 73.0 °F - 66.9 °F 81% 29.79 in 4.0 mi SE 6.9 mph - N/A   Haze
11:23 AM 75.2 °F - 68.0 °F 78% 29.79 in 8.0 mi SSE 11.5 mph - N/A   Scattered Clouds
11:53 AM 79.0 °F - 69.1 °F 72% 29.76 in 10.0 mi ESE 9.2 mph - N/A   Scattered Clouds
12:26 PM 80.6 °F 83.9 °F 69.8 °F 70% 29.76 in 10.0 mi ESE 6.9 mph - N/A   Mostly Cloudy
12:53 PM 79.0 °F - 69.1 °F 72% 29.73 in 10.0 mi ESE 3.5 mph - N/A   Overcast
1:22 PM 80.6 °F 83.9 °F 69.8 °F 70% 29.73 in 10.0 mi Variable 3.5 mph - N/A   Overcast
1:53 PM 80.1 °F 82.9 °F 69.1 °F 69% 29.70 in 9.0 mi SSE 9.2 mph - N/A   Overcast
2:14 PM 80.6 °F 83.9 °F 69.8 °F 70% 29.70 in 9.0 mi ESE 8.1 mph - N/A   Overcast
2:53 PM 80.1 °F 83.2 °F 70.0 °F 71% 29.65 in 8.0 mi SSE 12.7 mph - N/A   Overcast
3:53 PM 78.1 °F - 70.0 °F 76% 29.62 in 5.0 mi South 15.0 mph - N/A   Haze
4:14 PM 78.8 °F - 69.8 °F 74% 29.63 in 4.0 mi SSE 12.7 mph - N/A   Haze
4:53 PM 77.0 °F - 70.0 °F 79% 29.60 in 5.0 mi SSE 10.4 mph - N/A   Haze
5:53 PM 78.1 °F - 70.0 °F 76% 29.59 in 6.0 mi South 11.5 mph - N/A   Haze
6:23 PM 78.8 °F - 69.8 °F 74% 29.61 in 6.0 mi South 11.5 mph - N/A   Haze
6:53 PM 78.1 °F - 70.0 °F 76% 29.59 in 6.0 mi South 8.1 mph - N/A   Haze
7:15 PM 77.0 °F - 69.8 °F 78% 29.60 in 5.0 mi SSE 9.2 mph - N/A   Haze
7:53 PM 77.0 °F - 69.1 °F 76% 29.58 in 5.0 mi SSE 9.2 mph - N/A   Haze
8:32 PM 75.2 °F - 69.8 °F 83% 29.60 in 2.0 mi South 9.2 mph - N/A   Haze
8:53 PM 75.0 °F - 70.0 °F 84% 29.59 in 1.8 mi South 8.1 mph - N/A   Haze
9:12 PM 75.2 °F - 69.8 °F 83% 29.60 in 2.5 mi South 11.5 mph - 0.01 in   Haze
9:21 PM 75.2 °F - 69.8 °F 83% 29.60 in 3.0 mi South 11.5 mph - 0.01 in   Haze
9:53 PM 75.9 °F - 69.1 °F 79% 29.59 in 5.0 mi SSW 11.5 mph - 0.01 in   Haze
10:53 PM 75.0 °F - 69.1 °F 82% 29.58 in 5.0 mi SW 15.0 mph - N/A   Haze
11:53 PM 73.9 °F - 68.0 °F 82% 29.59 in 4.0 mi SW 13.8 mph - N/A   Haze